,,Stat5,,Stat1,,Stat2,,Stat3,,Stat4,,Wind1,,Wind1,
time,status,PA1M_AVG,status,PR1M_SUM,status,RH1M_AVG,status,SR1M_AVG,status,TA1M_AVG,status,W1dAve1m,status,W1sAve1m,
2001-12-19, 00:00:01,VALID,919.481,VALID,0,VALID,99.587,VALID,0.0169808,VALID,19.2418,VALID,241,VALID,0.563939,
2001-12-19, 00:01:01,VALID,919.447,VALID,0,VALID,99.5781,VALID,-0.0169808,VALID,19.2318,VALID,243,VALID,0.357475,
2001-12-19, 00:02:01,VALID,919.436,VALID,0,VALID,99.5895,VALID,-0.0169808,VALID,19.248,VALID,218,VALID,0.0873766,
2001-12-19, 00:03:01,VALID,919.428,VALID,0,VALID,99.587,VALID,-0.0509425,VALID,19.2704,VALID,218,VALID,0,
2001-12-19, 00:04:01,VALID,919.441,VALID,0,VALID,99.5806,VALID,0,VALID,19.2897,VALID,218,VALID,0,
2001-12-19, 00:05:01,VALID,919.462,VALID,0,VALID,99.5844,VALID,0,VALID,19.2835,VALID,218,VALID,0,
2001-12-19, 00:06:01,VALID,919.496,VALID,0,VALID,99.5895,VALID,0.0169808,VALID,19.2577,VALID,218,VALID,0,
2001-12-19, 00:07:01,VALID,919.521,VALID,0,VALID,99.5984,VALID,0,VALID,19.2669,VALID,218,VALID,0,
2001-12-19, 00:08:01,VALID,919.547,VALID,0,VALID,99.5895,VALID,0,VALID,19.2997,VALID,218,VALID,0,
2001-12-19, 00:09:01,VALID,919.562,VALID,0,VALID,99.5883,VALID,0,VALID,19.3509,VALID,295,VALID,0.0534206,
2001-12-19, 00:10:01,VALID,919.591,VALID,0,VALID,99.5908,VALID,0,VALID,19.374,VALID,27,VALID,0.0665064,
2001-12-19, 00:11:00,VALID,919.587,VALID,0,VALID,99.5883,VALID,0.0169808,VALID,19.3509,VALID,42,VALID,0.578947,
2001-12-19, 00:12:00,VALID,919.588,VALID,0,VALID,99.5908,VALID,0,VALID,19.3317,VALID,40,VALID,0.48787,
2001-12-19, 00:13:00,VALID,919.592,VALID,0,VALID,99.5844,VALID,0,VALID,19.3186,VALID,51,VALID,0.423142,
2001-12-19, 00:14:00,VALID,919.595,VALID,0,VALID,99.5908,VALID,-0.0169808,VALID,19.2999,VALID,46,VALID,0.278429,
2001-12-19, 00:15:00,VALID,919.58,VALID,0,VALID,99.5921,VALID,0,VALID,19.2545,VALID,46,VALID,0,
2001-12-19, 00:16:00,VALID,919.616,VALID,0,VALID,99.5895,VALID,0.0169808,VALID,19.2547,VALID,45,VALID,0,
2001-12-19, 00:17:00,VALID,919.629,VALID,0,VALID,99.6048,VALID,0.0169808,VALID,19.2505,VALID,41,VALID,0.133814,
2001-12-19, 00:18:00,VALID,919.649,VALID,0,VALID,99.5908,VALID,0,VALID,19.287,VALID,25,VALID,0.189103,
2001-12-19, 00:19:00,VALID,919.655,VALID,0,VALID,99.6022,VALID,0,VALID,19.254,VALID,23,VALID,0,
2001-12-19, 00:20:00,VALID,919.668,VALID,0,VALID,99.5972,VALID,0,VALID,19.2577,VALID,23,VALID,0,
2001-12-19, 00:21:00,VALID,919.685,VALID,0,VALID,99.6073,VALID,0,VALID,19.2803,VALID,23,VALID,0,
2001-12-19, 00:22:00,VALID,919.693,VALID,0,VALID,99.6035,VALID,0.0339617,VALID,19.2478,VALID,13,VALID,0,
2001-12-19, 00:23:00,VALID,919.709,VALID,0,VALID,99.5997,VALID,0,VALID,19.2182,VALID,11,VALID,0,
2001-12-19, 00:24:00,VALID,919.694,VALID,0,VALID,99.6048,VALID,0,VALID,19.2254,VALID,11,VALID,0,
2001-12-19, 00:25:00,VALID,919.697,VALID,0,VALID,99.6022,VALID,0,VALID,19.2383,VALID,11,VALID,0,
2001-12-19, 00:26:00,VALID,919.679,VALID,0,VALID,99.6111,VALID,0,VALID,19.254,VALID,11,VALID,0,
2001-12-19, 00:27:00,VALID,919.656,VALID,0,VALID,99.5972,VALID,0,VALID,19.293,VALID,326,VALID,0,
2001-12-19, 00:28:00,VALID,919.63,VALID,0,VALID,99.6061,VALID,0,VALID,19.3213,VALID,278,VALID,0,
2001-12-19, 00:29:00,VALID,919.599,VALID,0,VALID,99.6137,VALID,0,VALID,19.3081,VALID,260,VALID,0,
2001-12-19, 00:30:00,VALID,919.581,VALID,0,VALID,99.6086,VALID,0,VALID,19.3156,VALID,260,VALID,0,
2001-12-19, 00:31:00,VALID,919.558,VALID,0,VALID,99.6048,VALID,0.0169808,VALID,19.3417,VALID,251,VALID,0,
2001-12-19, 00:32:00,VALID,919.548,VALID,0,VALID,99.5997,VALID,0.0169808,VALID,19.3315,VALID,175,VALID,0.0752467,
2001-12-19, 00:33:00,VALID,919.548,VALID,0,VALID,99.6124,VALID,0.0169808,VALID,19.3156,VALID,177,VALID,0.60597,
2001-12-19, 00:34:00,VALID,919.518,VALID,0,VALID,99.6061,VALID,0,VALID,19.293,VALID,173,VALID,0.746289,
2001-12-19, 00:35:00,VALID,919.481,VALID,0,VALID,99.5997,VALID,0,VALID,19.2768,VALID,172,VALID,0.757401,
2001-12-19, 00:36:00,VALID,919.444,VALID,0,VALID,99.5984,VALID,0.0679233,VALID,19.2662,VALID,190,VALID,0.756785,
2001-12-19, 00:37:00,VALID,919.414,VALID,0,VALID,99.6022,VALID,0.0849042,VALID,19.2595,VALID,194,VALID,0.406651,
2001-12-19, 00:38:00,VALID,919.372,VALID,0,VALID,99.601,VALID,0.0849042,VALID,19.2498,VALID,193,VALID,0.166867,
2001-12-19, 00:39:00,VALID,919.339,VALID,0,VALID,99.5984,VALID,0.0849042,VALID,19.247,VALID,195,VALID,0.347155,
2001-12-19, 00:40:00,VALID,919.317,VALID,0,VALID,99.5984,VALID,0.0509425,VALID,19.2339,VALID,177,VALID,0.351333,
2001-12-19, 00:41:00,VALID,919.292,VALID,0,VALID,99.6137,VALID,0.0509425,VALID,19.2371,VALID,164,VALID,0.263867,
2001-12-19, 00:42:00,VALID,919.286,VALID,0,VALID,99.6124,VALID,0.0679233,VALID,19.2604,VALID,158,VALID,0,
2001-12-19, 00:43:00,VALID,919.28,VALID,0,VALID,99.6086,VALID,0.0509425,VALID,19.2597,VALID,157,VALID,0.00130208,
2001-12-19, 00:44:00,VALID,919.269,VALID,0,VALID,99.601,VALID,0,VALID,19.2309,VALID,131,VALID,0.269215,
2001-12-19, 00:45:00,VALID,919.271,VALID,0,VALID,99.601,VALID,-0.0339617,VALID,19.1963,VALID,125,VALID,0.451069,
2001-12-19, 00:46:00,VALID,919.25,VALID,0,VALID,99.6111,VALID,-0.0679233,VALID,19.1804,VALID,111,VALID,0.128255,
2001-12-19, 00:47:00,VALID,919.246,VALID,0,VALID,99.615,VALID,-0.0339617,VALID,19.1834,VALID,106,VALID,0.267314,
2001-12-19, 00:48:00,VALID,919.238,VALID,0,VALID,99.6162,VALID,-0.0679233,VALID,19.1941,VALID,134,VALID,0.0392795,
2001-12-19, 00:49:00,VALID,919.233,VALID,0,VALID,99.6124,VALID,-0.0169808,VALID,19.1772,VALID,113,VALID,0.344161,
2001-12-19, 00:50:00,VALID,919.249,VALID,0,VALID,99.6099,VALID,-0.0169808,VALID,19.1643,VALID,104,VALID,0.675676,
2001-12-19, 00:51:00,VALID,919.272,VALID,0,VALID,99.62,VALID,-0.0169808,VALID,19.1518,VALID,89,VALID,0.939215,
2001-12-19, 00:52:00,VALID,919.284,VALID,0,VALID,99.6175,VALID,0,VALID,19.1315,VALID,70,VALID,1.04746,
2001-12-19, 00:53:00,VALID,919.315,VALID,0,VALID,99.6188,VALID,0,VALID,19.1255,VALID,63,VALID,1.11431,
2001-12-19, 00:54:00,VALID,919.344,VALID,0,VALID,99.62,VALID,0,VALID,19.1158,VALID,67,VALID,1.17694,
2001-12-19, 00:55:00,VALID,919.357,VALID,0,VALID,99.6137,VALID,-0.0339617,VALID,19.0934,VALID,78,VALID,0.889648,
2001-12-19, 00:56:00,VALID,919.354,VALID,0,VALID,99.6226,VALID,-0.0169808,VALID,19.0708,VALID,76,VALID,1.07442,
2001-12-19, 00:57:00,VALID,919.353,VALID,0,VALID,99.6162,VALID,-0.0339617,VALID,19.0582,VALID,81,VALID,1.01696,
2001-12-19, 00:58:00,VALID,919.351,VALID,0,VALID,99.6251,VALID,0,VALID,19.0249,VALID,74,VALID,0.957131,
2001-12-19, 00:59:00,VALID,919.337,VALID,0,VALID,99.62,VALID,-0.0169808,VALID,19.0286,VALID,68,VALID,1.05859,
2001-12-19, 01:00:00,VALID,919.313,VALID,0,VALID,99.6264,VALID,-0.0339617,VALID,19.0293,VALID,82,VALID,1.04307,
2001-12-19, 01:01:00,VALID,919.296,VALID,0,VALID,99.6289,VALID,-0.0169808,VALID,19.0125,VALID,95,VALID,1.15365,
2001-12-19, 01:02:00,VALID,919.276,VALID,0,VALID,99.6315,VALID,-0.0509425,VALID,19.0127,VALID,102,VALID,1.19675,
2001-12-19, 01:03:00,VALID,919.259,VALID,0,VALID,99.6391,VALID,-0.0169808,VALID,19.0326,VALID,128,VALID,1.0514,
2001-12-19, 01:04:00,VALID,919.242,VALID,0,VALID,99.6417,VALID,-0.0169808,VALID,19.0351,VALID,130,VALID,1.02808,
2001-12-19, 01:05:00,VALID,919.228,VALID,0,VALID,99.6417,VALID,-0.0169808,VALID,19.0741,VALID,129,VALID,1.28299,
2001-12-19, 01:06:00,VALID,919.188,VALID,0,VALID,99.6417,VALID,-0.0339617,VALID,19.1093,VALID,142,VALID,1.39253,
2001-12-19, 01:07:00,VALID,919.162,VALID,0,VALID,99.6417,VALID,-0.0169808,VALID,19.1354,VALID,138,VALID,1.50535,
2001-12-19, 01:08:00,VALID,919.141,VALID,0,VALID,99.6239,VALID,-0.0509425,VALID,19.158,VALID,133,VALID,1.29367,
2001-12-19, 01:09:00,VALID,919.121,VALID,0,VALID,99.6455,VALID,-0.0679233,VALID,19.168,VALID,136,VALID,1.35016,
2001-12-19, 01:10:00,VALID,919.093,VALID,0,VALID,99.6239,VALID,-0.0339617,VALID,19.1841,VALID,128,VALID,1.85431,
2001-12-19, 01:11:00,VALID,919.083,VALID,0,VALID,99.6378,VALID,0,VALID,19.1836,VALID,139,VALID,1.18688,
2001-12-19, 01:12:00,VALID,919.084,VALID,0,VALID,99.6302,VALID,-0.0509425,VALID,19.197,VALID,133,VALID,0.913261,
2001-12-19, 01:13:00,VALID,919.089,VALID,0,VALID,99.6315,VALID,-0.0169808,VALID,19.2035,VALID,139,VALID,1.61859,
2001-12-19, 01:14:00,VALID,919.083,VALID,0,VALID,99.6264,VALID,-0.0509425,VALID,19.2035,VALID,123,VALID,1.42348,
2001-12-19, 01:15:00,VALID,919.088,VALID,0,VALID,99.6353,VALID,-0.0509425,VALID,19.1998,VALID,140,VALID,1.48458,
2001-12-19, 01:16:00,VALID,919.072,VALID,0,VALID,99.6239,VALID,-0.0509425,VALID,19.1936,VALID,133,VALID,1.48015,
2001-12-19, 01:17:00,VALID,919.062,VALID,0,VALID,99.6277,VALID,-0.0509425,VALID,19.1844,VALID,138,VALID,0.690755,
2001-12-19, 01:18:00,VALID,919.046,VALID,0,VALID,99.6391,VALID,-0.0339617,VALID,19.1804,VALID,108,VALID,1.03082,
2001-12-19, 01:19:00,VALID,919.027,VALID,0,VALID,99.6366,VALID,-0.0169808,VALID,19.1643,VALID,113,VALID,0.86986,
2001-12-19, 01:20:00,VALID,919.014,VALID,0,VALID,99.6315,VALID,-0.0169808,VALID,19.1643,VALID,109,VALID,0.464227,
2001-12-19, 01:21:00,VALID,919.005,VALID,0,VALID,99.634,VALID,0,VALID,19.1548,VALID,122,VALID,1.31424,
2001-12-19, 01:22:00,VALID,918.997,VALID,0,VALID,99.6404,VALID,0,VALID,19.1483,VALID,113,VALID,1.11027,
2001-12-19, 01:23:00,VALID,918.985,VALID,0,VALID,99.6353,VALID,-0.0169808,VALID,19.1416,VALID,122,VALID,0.533306,
2001-12-19, 01:24:00,VALID,918.965,VALID,0,VALID,99.6366,VALID,-0.0169808,VALID,19.1347,VALID,119,VALID,0.323518,
2001-12-19, 01:25:00,VALID,918.956,VALID,0,VALID,99.6378,VALID,0.0169808,VALID,19.1349,VALID,119,VALID,0.349219,
2001-12-19, 01:26:00,VALID,918.938,VALID,0,VALID,99.6404,VALID,0,VALID,19.1421,VALID,130,VALID,0.32648,
2001-12-19, 01:27:00,VALID,918.935,VALID,0,VALID,99.6315,VALID,0,VALID,19.1282,VALID,138,VALID,0.0875822,
2001-12-19, 01:28:00,VALID,918.926,VALID,0,VALID,99.6429,VALID,-0.0339617,VALID,19.1349,VALID,109,VALID,0.360577,
2001-12-19, 01:29:00,VALID,918.92,VALID,0,VALID,99.6417,VALID,0,VALID,19.132,VALID,89,VALID,0.124599,
2001-12-19, 01:30:00,VALID,918.917,VALID,0,VALID,99.648,VALID,0,VALID,19.1446,VALID,83,VALID,0.29367,
2001-12-19, 01:31:00,VALID,918.904,VALID,0,VALID,99.6429,VALID,0,VALID,19.1416,VALID,86,VALID,0.503217,
2001-12-19, 01:32:00,VALID,918.892,VALID,0,VALID,99.6353,VALID,0,VALID,19.1158,VALID,99,VALID,0.932617,
2001-12-19, 01:33:00,VALID,918.888,VALID,0,VALID,99.6468,VALID,-0.0169808,VALID,19.1056,VALID,114,VALID,0.858941,
2001-12-19, 01:34:00,VALID,918.866,VALID,0,VALID,99.6442,VALID,-0.0169808,VALID,19.1156,VALID,125,VALID,0.595703,
2001-12-19, 01:35:00,VALID,918.859,VALID,0,VALID,99.6468,VALID,0,VALID,19.116,VALID,134,VALID,0.833826,
2001-12-19, 01:36:00,VALID,918.854,VALID,0,VALID,99.6442,VALID,0,VALID,19.0964,VALID,112,VALID,0.499178,
2001-12-19, 01:37:00,VALID,918.858,VALID,0,VALID,99.648,VALID,-0.0169808,VALID,19.0905,VALID,121,VALID,0.561632,
2001-12-19, 01:38:00,VALID,918.855,VALID,0,VALID,99.6493,VALID,-0.0169808,VALID,19.0676,VALID,132,VALID,0.0821368,
2001-12-19, 01:39:00,VALID,918.869,VALID,0,VALID,99.6506,VALID,0.0169808,VALID,19.0773,VALID,89,VALID,0.0243056,
2001-12-19, 01:40:00,VALID,918.875,VALID,0,VALID,99.6429,VALID,0,VALID,19.087,VALID,83,VALID,0,
2001-12-19, 01:41:00,VALID,918.876,VALID,0,VALID,99.6442,VALID,-0.0339617,VALID,19.0875,VALID,50,VALID,0.165541,
2001-12-19, 01:42:00,VALID,918.862,VALID,0,VALID,99.6506,VALID,-0.0169808,VALID,19.0768,VALID,18,VALID,0.493521,
2001-12-19, 01:43:00,VALID,918.853,VALID,0,VALID,99.6429,VALID,0,VALID,19.0738,VALID,10,VALID,0.625586,
2001-12-19, 01:44:00,VALID,918.837,VALID,0,VALID,99.6607,VALID,-0.0169808,VALID,19.0515,VALID,9,VALID,0.522204,
2001-12-19, 01:45:00,VALID,918.811,VALID,0,VALID,99.648,VALID,-0.0169808,VALID,19.0281,VALID,11,VALID,0.293497,
2001-12-19, 01:46:00,VALID,918.814,VALID,0,VALID,99.6506,VALID,0,VALID,19.0194,VALID,11,VALID,0,
2001-12-19, 01:47:00,VALID,918.792,VALID,0,VALID,99.6569,VALID,-0.0169808,VALID,19.0159,VALID,15,VALID,0.0750411,
2001-12-19, 01:48:00,VALID,918.791,VALID,0,VALID,99.6633,VALID,-0.0169808,VALID,19.0288,VALID,26,VALID,0,
2001-12-19, 01:49:00,VALID,918.773,VALID,0,VALID,99.6633,VALID,-0.0169808,VALID,19.0259,VALID,26,VALID,0,
2001-12-19, 01:50:00,VALID,918.751,VALID,0,VALID,99.6518,VALID,-0.0169808,VALID,18.9995,VALID,26,VALID,0,
2001-12-19, 01:51:00,VALID,918.727,VALID,0,VALID,99.6531,VALID,0,VALID,18.9834,VALID,26,VALID,0,
2001-12-19, 01:52:00,VALID,918.691,VALID,0,VALID,99.6595,VALID,-0.0509425,VALID,18.9707,VALID,26,VALID,0,
2001-12-19, 01:53:00,VALID,918.664,VALID,0,VALID,99.6658,VALID,0,VALID,18.964,VALID,49,VALID,0,
2001-12-19, 01:54:00,VALID,918.632,VALID,0,VALID,99.6531,VALID,0,VALID,18.9608,VALID,61,VALID,0.0078125,
2001-12-19, 01:55:00,VALID,918.6,VALID,0,VALID,99.6582,VALID,0,VALID,18.9317,VALID,63,VALID,0.721284,
2001-12-19, 01:56:00,VALID,918.566,VALID,0,VALID,99.6518,VALID,0,VALID,18.8897,VALID,68,VALID,0.708767,
2001-12-19, 01:57:00,VALID,918.549,VALID,0,VALID,99.6556,VALID,-0.0169808,VALID,18.8542,VALID,73,VALID,0.663007,
2001-12-19, 01:58:00,VALID,918.527,VALID,0,VALID,99.6696,VALID,0,VALID,18.841,VALID,85,VALID,0.668174,
2001-12-19, 01:59:00,VALID,918.53,VALID,0,VALID,99.676,VALID,-0.0169808,VALID,18.8249,VALID,92,VALID,0.427284,
2001-12-19, 02:00:00,VALID,918.516,VALID,0,VALID,99.6785,VALID,0,VALID,18.8378,VALID,96,VALID,0.197115,
2001-12-19, 02:01:00,VALID,918.513,VALID,0,VALID,99.6849,VALID,0,VALID,18.8644,VALID,107,VALID,0.320524,
2001-12-19, 02:02:00,VALID,918.499,VALID,0,VALID,99.6747,VALID,0,VALID,18.8803,VALID,121,VALID,0.438939,
2001-12-19, 02:03:00,VALID,918.497,VALID,0,VALID,99.676,VALID,-0.0169808,VALID,18.8798,VALID,133,VALID,0.51262,
2001-12-19, 02:04:00,VALID,918.483,VALID,0,VALID,99.6747,VALID,-0.0339617,VALID,18.893,VALID,110,VALID,0.828325,
2001-12-19, 02:05:00,VALID,918.462,VALID,0,VALID,99.6735,VALID,-0.0169808,VALID,18.9061,VALID,102,VALID,0.670496,
2001-12-19, 02:06:00,VALID,918.451,VALID,0,VALID,99.6735,VALID,-0.0169808,VALID,18.9029,VALID,91,VALID,0.755551,
2001-12-19, 02:07:00,VALID,918.435,VALID,0,VALID,99.6722,VALID,-0.0169808,VALID,18.9029,VALID,89,VALID,1.04582,
2001-12-19, 02:08:00,VALID,918.41,VALID,0,VALID,99.6785,VALID,0,VALID,18.9225,VALID,95,VALID,0.920139,
2001-12-19, 02:09:00,VALID,918.402,VALID,0,VALID,99.6836,VALID,0,VALID,18.9553,VALID,100,VALID,1.02387,
2001-12-19, 02:10:00,VALID,918.382,VALID,0,VALID,99.6722,VALID,-0.0169808,VALID,18.961,VALID,89,VALID,1.0553,
2001-12-19, 02:11:00,VALID,918.378,VALID,0,VALID,99.662,VALID,-0.0169808,VALID,18.9546,VALID,93,VALID,0.7169,
2001-12-19, 02:12:00,VALID,918.389,VALID,0,VALID,99.6735,VALID,-0.0339617,VALID,18.9384,VALID,91,VALID,0.778429,
2001-12-19, 02:13:00,VALID,918.376,VALID,0,VALID,99.6582,VALID,-0.0169808,VALID,18.955,VALID,95,VALID,1.08929,
2001-12-19, 02:14:00,VALID,918.364,VALID,0,VALID,99.6735,VALID,-0.0169808,VALID,18.958,VALID,71,VALID,0.858758,
2001-12-19, 02:15:00,VALID,918.364,VALID,0,VALID,99.6671,VALID,-0.0339617,VALID,18.952,VALID,89,VALID,1.07071,
2001-12-19, 02:16:00,VALID,918.377,VALID,0,VALID,99.6709,VALID,-0.0169808,VALID,18.9317,VALID,85,VALID,1.06074,
2001-12-19, 02:17:00,VALID,918.372,VALID,0,VALID,99.6709,VALID,-0.0169808,VALID,18.9382,VALID,77,VALID,0.807155,
2001-12-19, 02:18:00,VALID,918.373,VALID,0,VALID,99.6747,VALID,0,VALID,18.9317,VALID,94,VALID,0.916118,
2001-12-19, 02:19:00,VALID,918.38,VALID,0,VALID,99.676,VALID,-0.0169808,VALID,18.9285,VALID,111,VALID,0.985978,
2001-12-19, 02:20:00,VALID,918.411,VALID,0,VALID,99.6722,VALID,-0.0169808,VALID,18.9416,VALID,103,VALID,0.901042,
2001-12-19, 02:21:00,VALID,918.406,VALID,0,VALID,99.6709,VALID,0.0169808,VALID,18.9675,VALID,142,VALID,0.375206,
2001-12-19, 02:22:00,VALID,918.406,VALID,0,VALID,99.6696,VALID,-0.0169808,VALID,18.967,VALID,117,VALID,0.537914,
2001-12-19, 02:23:00,VALID,918.407,VALID,0,VALID,99.6671,VALID,-0.0339617,VALID,18.9675,VALID,119,VALID,0.860937,
2001-12-19, 02:24:00,VALID,918.409,VALID,0,VALID,99.6709,VALID,-0.0169808,VALID,18.9638,VALID,131,VALID,0.749349,
2001-12-19, 02:25:00,VALID,918.431,VALID,0,VALID,99.6722,VALID,-0.0169808,VALID,18.9901,VALID,119,VALID,0.538845,
2001-12-19, 02:26:00,VALID,918.429,VALID,0,VALID,99.6684,VALID,-0.0169808,VALID,18.9901,VALID,109,VALID,0.439823,
2001-12-19, 02:27:00,VALID,918.442,VALID,0,VALID,99.6722,VALID,0,VALID,18.9936,VALID,110,VALID,0.501234,
2001-12-19, 02:28:00,VALID,918.44,VALID,0,VALID,99.6824,VALID,-0.0339617,VALID,18.9968,VALID,112,VALID,0.557075,
2001-12-19, 02:29:00,VALID,918.455,VALID,0,VALID,99.6824,VALID,-0.0169808,VALID,18.9839,VALID,130,VALID,0.515414,
2001-12-19, 02:30:00,VALID,918.481,VALID,0,VALID,99.676,VALID,-0.0339617,VALID,18.9968,VALID,137,VALID,0.902344,
2001-12-19, 02:31:00,VALID,918.482,VALID,0,VALID,99.6836,VALID,-0.0509425,VALID,19.0003,VALID,154,VALID,1.03104,
2001-12-19, 02:32:00,VALID,918.498,VALID,0,VALID,99.676,VALID,0,VALID,19.0129,VALID,156,VALID,1.16068,
2001-12-19, 02:33:00,VALID,918.51,VALID,0,VALID,99.6824,VALID,-0.0339617,VALID,19.0224,VALID,151,VALID,1.23609,
2001-12-19, 02:34:00,VALID,918.515,VALID,0,VALID,99.6735,VALID,-0.0169808,VALID,19.0229,VALID,150,VALID,1.0459,
2001-12-19, 02:35:00,VALID,918.517,VALID,0,VALID,99.6849,VALID,-0.0169808,VALID,19.0196,VALID,154,VALID,1.0847,
2001-12-19, 02:36:00,VALID,918.522,VALID,0,VALID,99.6785,VALID,-0.0509425,VALID,18.9995,VALID,157,VALID,0.917019,
2001-12-19, 02:37:00,VALID,918.532,VALID,0,VALID,99.6709,VALID,-0.0169808,VALID,19.0199,VALID,158,VALID,0.758398,
2001-12-19, 02:38:00,VALID,918.512,VALID,0,VALID,99.6811,VALID,-0.0679233,VALID,19.0261,VALID,159,VALID,0.605469,
2001-12-19, 02:39:00,VALID,918.511,VALID,0,VALID,99.6913,VALID,0,VALID,19.0157,VALID,164,VALID,0.6375,
2001-12-19, 02:40:00,VALID,918.51,VALID,0,VALID,99.6824,VALID,0,VALID,19.0328,VALID,169,VALID,0.828325,
2001-12-19, 02:41:00,VALID,918.508,VALID,0,VALID,99.6798,VALID,-0.0169808,VALID,19.0162,VALID,166,VALID,0.589627,
2001-12-19, 02:42:00,VALID,918.482,VALID,0,VALID,99.6824,VALID,-0.0509425,VALID,19.0132,VALID,159,VALID,0.522804,
2001-12-19, 02:43:00,VALID,918.483,VALID,0,VALID,99.6849,VALID,-0.0339617,VALID,19.0298,VALID,154,VALID,0.809295,
2001-12-19, 02:44:00,VALID,918.48,VALID,0,VALID,99.6836,VALID,0,VALID,19.0122,VALID,153,VALID,0.722656,
2001-12-19, 02:45:00,VALID,918.474,VALID,0,VALID,99.6811,VALID,0,VALID,19.0192,VALID,153,VALID,0.766859,
2001-12-19, 02:46:00,VALID,918.474,VALID,0,VALID,99.6824,VALID,0,VALID,19.009,VALID,152,VALID,0.997044,
2001-12-19, 02:47:00,VALID,918.473,VALID,0,VALID,99.6862,VALID,-0.0339617,VALID,19.0159,VALID,150,VALID,0.820095,
2001-12-19, 02:48:00,VALID,918.468,VALID,0,VALID,99.6785,VALID,-0.0169808,VALID,19.0259,VALID,155,VALID,1.09861,
2001-12-19, 02:49:00,VALID,918.464,VALID,0,VALID,99.6798,VALID,0.0169808,VALID,19.0221,VALID,146,VALID,1.10218,
2001-12-19, 02:50:00,VALID,918.482,VALID,0,VALID,99.6887,VALID,-0.0169808,VALID,19.0226,VALID,150,VALID,0.919071,
2001-12-19, 02:51:00,VALID,918.462,VALID,0,VALID,99.6836,VALID,-0.0339617,VALID,19.0194,VALID,152,VALID,1.42728,
2001-12-19, 02:52:00,VALID,918.478,VALID,0,VALID,99.6849,VALID,-0.0339617,VALID,19.0254,VALID,156,VALID,1.55025,
2001-12-19, 02:53:00,VALID,918.475,VALID,0,VALID,99.6696,VALID,-0.0169808,VALID,19.0254,VALID,163,VALID,1.45456,
2001-12-19, 02:54:00,VALID,918.465,VALID,0,VALID,99.6824,VALID,-0.0339617,VALID,19.0256,VALID,153,VALID,1.70773,
2001-12-19, 02:55:00,VALID,918.468,VALID,0,VALID,99.6862,VALID,-0.0339617,VALID,19.0288,VALID,147,VALID,1.25461,
2001-12-19, 02:56:00,VALID,918.477,VALID,0,VALID,99.6849,VALID,-0.0169808,VALID,19.0452,VALID,141,VALID,1.01861,
2001-12-19, 02:57:00,VALID,918.468,VALID,0,VALID,99.6862,VALID,-0.0169808,VALID,19.0554,VALID,142,VALID,0.832031,
2001-12-19, 02:58:00,VALID,918.469,VALID,0,VALID,99.6785,VALID,-0.0169808,VALID,19.0512,VALID,138,VALID,1.03125,
2001-12-19, 02:59:00,VALID,918.467,VALID,0,VALID,99.6836,VALID,-0.0339617,VALID,19.0452,VALID,137,VALID,0.811415,
2001-12-19, 03:00:00,VALID,918.462,VALID,0,VALID,99.6773,VALID,-0.0169808,VALID,19.0448,VALID,156,VALID,0.787109,
2001-12-19, 03:01:00,VALID,918.459,VALID,0,VALID,99.6824,VALID,-0.0169808,VALID,19.0544,VALID,137,VALID,0.131373,
2001-12-19, 03:02:00,VALID,918.454,VALID,0,VALID,99.6735,VALID,-0.0169808,VALID,19.0678,VALID,130,VALID,0.50185,
2001-12-19, 03:03:00,VALID,918.449,VALID,0,VALID,99.6862,VALID,-0.0169808,VALID,19.0676,VALID,153,VALID,0.416884,
2001-12-19, 03:04:00,VALID,918.447,VALID,0,VALID,99.6874,VALID,-0.0339617,VALID,19.0676,VALID,109,VALID,0.412277,
2001-12-19, 03:05:00,VALID,918.453,VALID,0,VALID,99.6811,VALID,-0.0339617,VALID,19.0741,VALID,115,VALID,0.775082,
2001-12-19, 03:06:00,VALID,918.469,VALID,0,VALID,99.6785,VALID,-0.0509425,VALID,19.0743,VALID,106,VALID,0.403646,
2001-12-19, 03:07:00,VALID,918.478,VALID,0,VALID,99.6785,VALID,0,VALID,19.0681,VALID,106,VALID,0.373828,
2001-12-19, 03:08:00,VALID,918.483,VALID,0,VALID,99.6824,VALID,-0.0169808,VALID,19.0614,VALID,115,VALID,0.283512,
2001-12-19, 03:09:00,VALID,918.494,VALID,0,VALID,99.6747,VALID,0,VALID,19.0614,VALID,153,VALID,0.734581,
2001-12-19, 03:10:00,VALID,918.481,VALID,0,VALID,99.6785,VALID,-0.0339617,VALID,19.0512,VALID,159,VALID,0.259615,
2001-12-19, 03:11:00,VALID,918.481,VALID,0,VALID,99.6836,VALID,-0.0339617,VALID,19.0711,VALID,152,VALID,0.153245,
2001-12-19, 03:12:00,VALID,918.492,VALID,0,VALID,99.6836,VALID,-0.0339617,VALID,19.0579,VALID,142,VALID,0.0522837,
2001-12-19, 03:13:00,VALID,918.505,VALID,0,VALID,99.6798,VALID,-0.0679233,VALID,19.0582,VALID,123,VALID,0,
2001-12-19, 03:14:00,VALID,918.51,VALID,0,VALID,99.6671,VALID,-0.0339617,VALID,19.0455,VALID,119,VALID,0.00449219,
2001-12-19, 03:15:00,VALID,918.498,VALID,0,VALID,99.6836,VALID,-0.0509425,VALID,19.0192,VALID,130,VALID,0.457682,
2001-12-19, 03:16:00,VALID,918.493,VALID,0,VALID,99.6824,VALID,-0.0509425,VALID,19.0355,VALID,110,VALID,0.332682,
2001-12-19, 03:17:00,VALID,918.486,VALID,0,VALID,99.6747,VALID,-0.0679233,VALID,19.0129,VALID,99,VALID,0.702069,
2001-12-19, 03:18:00,VALID,918.464,VALID,0,VALID,99.6798,VALID,-0.0509425,VALID,19.0028,VALID,83,VALID,0.449013,
2001-12-19, 03:19:00,VALID,918.452,VALID,0,VALID,99.6785,VALID,-0.0509425,VALID,19.0037,VALID,118,VALID,0.780599,
2001-12-19, 03:20:00,VALID,918.43,VALID,0,VALID,99.7027,VALID,-0.0509425,VALID,19.0099,VALID,122,VALID,0.806377,
2001-12-19, 03:21:00,VALID,918.416,VALID,0,VALID,99.6913,VALID,-0.0849042,VALID,19.0099,VALID,131,VALID,0.664063,
2001-12-19, 03:22:00,VALID,918.408,VALID,0,VALID,99.7014,VALID,-0.0679233,VALID,19.0236,VALID,143,VALID,0.468544,
2001-12-19, 03:23:00,VALID,918.4,VALID,0,VALID,99.69,VALID,-0.0849042,VALID,19.0303,VALID,147,VALID,0.875633,
2001-12-19, 03:24:00,VALID,918.382,VALID,0,VALID,99.6849,VALID,-0.118866,VALID,19.043,VALID,131,VALID,0.700267,
2001-12-19, 03:25:00,VALID,918.365,VALID,0,VALID,99.6951,VALID,-0.118866,VALID,19.0365,VALID,135,VALID,0.926172,
2001-12-19, 03:26:00,VALID,918.344,VALID,0,VALID,99.6824,VALID,-0.101885,VALID,19.0462,VALID,131,VALID,0.874383,
2001-12-19, 03:27:00,VALID,918.331,VALID,0,VALID,99.6887,VALID,-0.101885,VALID,19.043,VALID,136,VALID,0.651605,
2001-12-19, 03:28:00,VALID,918.307,VALID,0,VALID,99.6836,VALID,-0.101885,VALID,19.0494,VALID,140,VALID,0.987695,
2001-12-19, 03:29:00,VALID,918.277,VALID,0,VALID,99.6913,VALID,-0.0679233,VALID,19.0427,VALID,141,VALID,1.00966,
2001-12-19, 03:30:00,VALID,918.248,VALID,0,VALID,99.6836,VALID,-0.0849042,VALID,19.0591,VALID,139,VALID,1.07187,
2001-12-19, 03:31:00,VALID,918.228,VALID,0,VALID,99.6925,VALID,-0.118866,VALID,19.0499,VALID,139,VALID,1.43029,
2001-12-19, 03:32:00,VALID,918.211,VALID,0,VALID,99.6824,VALID,-0.0849042,VALID,19.0365,VALID,146,VALID,1.53494,
2001-12-19, 03:33:00,VALID,918.188,VALID,0,VALID,99.6887,VALID,-0.101885,VALID,19.033,VALID,149,VALID,1.69531,
2001-12-19, 03:34:00,VALID,918.188,VALID,0,VALID,99.6811,VALID,-0.101885,VALID,19.0365,VALID,154,VALID,1.20373,